TimeBST,TemperatureF,Dew PointF,Humidity,Sea Level PressureIn,VisibilityMPH,Wind Direction,Wind SpeedMPH,Gust SpeedMPH,PrecipitationIn,Events,Conditions,WindDirDegrees,DateUTC
12:58 AM,54.1,49.6,85,30.36,6.2,West,5.8,-,N/A,,Mostly Cloudy,270,2013-09-01 23:58:00
1:58 AM,52.9,49.8,89,30.36,6.2,SW,4.6,-,N/A,,Clear,220,2013-09-02 00:58:00
2:58 AM,51.1,48.6,91,30.35,6.2,SW,4.6,-,N/A,,Clear,230,2013-09-02 01:58:00
3:58 AM,50.0,48.6,95,30.33,6.2,SW,8.1,-,N/A,,Clear,230,2013-09-02 02:58:00
4:58 AM,47.5,46.2,95,30.34,6.2,SSW,4.6,-,N/A,,Clear,210,2013-09-02 03:58:00
5:31 AM,48.2,46.4,93,30.33,6.2,SW,5.8,-,N/A,Rain,Light Rain,220,2013-09-02 04:31:00
5:53 AM,48.2,48.2,100,30.33,6.2,WSW,5.8,-,N/A,,Clear,250,2013-09-02 04:53:00
5:56 AM,48.2,48.2,100,30.32,6.2,West,6.9,-,N/A,,Light Drizzle,260,2013-09-02 04:56:00
5:58 AM,48.2,48.2,100,30.33,6.2,West,6.9,-,0.00,,Light Drizzle,260,2013-09-02 04:58:00
6:17 AM,48.2,48.2,100,30.32,6.2,West,10.4,-,N/A,,Clear,260,2013-09-02 05:17:00
6:58 AM,50.4,49.8,98,30.33,6.2,West,8.1,-,0.00,,Clear,280,2013-09-02 05:58:00
7:58 AM,53.1,52.3,97,30.34,6.2,WSW,6.9,-,N/A,,Clear,250,2013-09-02 06:58:00
8:58 AM,58.5,54.7,87,30.35,6.2,West,12.7,-,N/A,,Clear,270,2013-09-02 07:58:00
9:58 AM,62.6,52.3,69,30.37,6.2,WSW,9.2,-,N/A,,Clear,250,2013-09-02 08:58:00
10:58 AM,65.7,53.2,64,30.36,6.2,WNW,10.4,-,N/A,,Clear,300,2013-09-02 09:58:00
11:34 AM,68.0,55.4,64,30.35,6.2,WNW,8.1,-,N/A,,Mostly Cloudy,290,2013-09-02 10:34:00
11:43 AM,68.0,55.4,64,30.34,6.2,West,6.9,-,N/A,Rain,Light Rain,280,2013-09-02 10:43:00
11:44 AM,68.0,55.4,64,30.34,6.2,West,8.1,-,N/A,,Mostly Cloudy,280,2013-09-02 10:44:00
11:50 AM,69.8,55.4,60,30.34,6.2,WNW,8.1,-,N/A,,Scattered Clouds,290,2013-09-02 10:50:00
11:58 AM,69.1,54.7,60,30.35,6.2,WNW,8.1,-,0.00,,Scattered Clouds,290,2013-09-02 10:58:00
12:07 PM,69.8,55.4,60,30.34,6.2,West,10.4,-,N/A,Rain,Light Rain,270,2013-09-02 11:07:00
12:47 PM,69.8,55.4,60,30.34,6.2,NW,10.4,-,N/A,,Mostly Cloudy,310,2013-09-02 11:47:00
12:56 PM,69.8,55.4,60,30.34,6.2,WNW,10.4,-,N/A,Rain,Light Rain,300,2013-09-02 11:56:00
12:58 PM,69.8,55.4,60,30.35,6.2,WNW,11.5,-,0.00,Rain,Light Rain,290,2013-09-02 11:58:00
1:09 PM,69.8,55.4,60,30.34,6.2,WNW,8.1,-,N/A,,Mostly Cloudy,290,2013-09-02 12:09:00
1:12 PM,69.8,55.4,60,30.34,6.2,WNW,10.4,-,N/A,Rain,Light Rain,290,2013-09-02 12:12:00
1:23 PM,69.8,55.4,60,30.34,6.2,WNW,9.2,-,N/A,,Mostly Cloudy,290,2013-09-02 12:23:00
1:58 PM,71.8,55.9,57,30.35,6.2,WNW,8.1,-,0.00,,Mostly Cloudy,290,2013-09-02 12:58:00
2:09 PM,71.6,55.4,57,30.33,6.2,WNW,12.7,-,N/A,,Scattered Clouds,290,2013-09-02 13:09:00
2:58 PM,73.2,56.8,56,30.34,6.2,WNW,10.4,-,N/A,,Clear,300,2013-09-02 13:58:00
3:19 PM,73.4,57.2,57,30.32,6.2,WNW,12.7,-,N/A,,Clear,300,2013-09-02 14:19:00
3:58 PM,74.1,57.6,56,30.33,6.2,West,10.4,-,N/A,,Clear,270,2013-09-02 14:58:00
4:58 PM,74.5,57.2,55,30.32,6.2,WNW,10.4,-,N/A,,Clear,300,2013-09-02 15:58:00
5:58 PM,73.8,57.9,58,30.32,6.2,NW,10.4,-,N/A,,Partly Cloudy,310,2013-09-02 16:58:00
6:58 PM,71.2,58.5,64,30.33,6.2,WNW,8.1,-,N/A,,Partly Cloudy,290,2013-09-02 17:58:00
7:07 PM,71.6,59.0,64,30.32,6.2,WNW,9.2,-,N/A,,Mostly Cloudy,290,2013-09-02 18:07:00
7:58 PM,67.8,58.3,71,30.35,6.2,West,9.2,-,N/A,,Mostly Cloudy,280,2013-09-02 18:58:00
7:59 PM,68.0,59.0,73,30.34,6.2,West,8.1,-,N/A,,Scattered Clouds,280,2013-09-02 18:59:00
8:22 PM,64.4,57.2,77,30.34,6.2,West,8.1,-,N/A,,Light Drizzle,270,2013-09-02 19:22:00
8:32 PM,64.4,57.2,77,30.34,6.2,West,9.2,-,N/A,,Clear,270,2013-09-02 19:32:00
8:41 PM,62.6,59.0,88,30.34,6.2,West,6.9,-,N/A,Rain,Light Rain,280,2013-09-02 19:41:00
8:51 PM,62.6,57.2,82,30.35,6.2,West,8.1,-,N/A,,Clear,260,2013-09-02 19:51:00
8:58 PM,62.6,57.9,85,30.36,6.2,West,8.1,-,0.00,,Clear,260,2013-09-02 19:58:00
9:20 PM,62.6,57.2,82,30.35,6.2,West,6.9,-,N/A,Rain,Light Rain,280,2013-09-02 20:20:00
9:24 PM,60.8,57.2,88,30.35,6.2,West,5.8,-,N/A,,Clear,280,2013-09-02 20:24:00
9:58 PM,60.3,57.0,89,30.37,6.2,West,5.8,-,0.00,,Clear,270,2013-09-02 20:58:00
10:58 PM,59.0,55.8,89,30.37,6.2,WNW,2.3,-,N/A,,Clear,290,2013-09-02 21:58:00
11:58 PM,58.6,56.1,91,30.37,6.2,West,3.5,-,N/A,,Clear,270,2013-09-02 22:58:00